Weather History for KATP - January, 2014

Change the Weather History Date:

Sunday, January 5, 2014

  Actual Average Record
Temperature  
Mean Temperature 68 °F -  
Max Temperature 73 °F - - ()
Min Temperature 62 °F - - ()
Cooling Degree Days 2    
Growing Degree Days 18 (Base 50)    
Moisture  
Dew Point 63 °F    
Average Humidity 76    
Maximum Humidity 88    
Minimum Humidity 60    
Precipitation  
Precipitation 0.00 in - - ()
Sea Level Pressure  
Sea Level Pressure 30.05 in    
Wind  
Wind Speed 7 mph (SW)    
Max Wind Speed 30 mph    
Max Gust Speed 22 mph    
Visibility 4 miles    
Events      
T = Trace of Precipitation, MM = Missing Value Source: NWS Daily Summary

Daily Weather History Graph

Daily Weather History Graph

Search for Another Location

Airport or City:

Trip Planner

Search our weather history database for the weather conditions in past years. The results will help you decide how hot, cold, wet, or windy it might be!

Date:

Astronomy

Jan. 05, 2014 Rise Set
Actual Time 6:50 AM CST 5:20 PM CST
Civil Twilight 6:25 AM CST 5:46 PM CST
Nautical Twilight 5:56 AM CST 6:14 PM CST
Astronomical Twilight 5:28 AM CST 6:43 PM CST
Moon 10:00 AM CST (1/5) 10:17 PM CST (1/5)
Length of Visible Light 11h 20m
Length of Day
10h 29m
Waxing Crescent, 25% of the Moon is Illuminated
Jan 5
Waxing Crescent
Jan 7
First Quarter
Jan 15
Full
Jan 23
Last Quarter
Jan 30
New

Hourly Weather History & Observations

Time (CST) Temp. Dew Point Humidity Pressure Visibility Wind Dir Wind Speed Gust Speed Precip Events Conditions
12:15 AM 68.0 °F 55.4 °F 64% 30.08 in 5.0 mi South 10.4 mph 18.4 mph N/A   Haze
12:35 AM 68.0 °F 55.4 °F 64% 30.07 in 5.0 mi South 16.1 mph 21.9 mph N/A   Haze
12:55 AM 68.0 °F 57.2 °F 68% 30.07 in 5.0 mi South 15.0 mph 21.9 mph N/A   Haze
1:15 AM 68.0 °F 57.2 °F 68% 30.05 in 5.0 mi South 10.4 mph 18.4 mph N/A   Haze
1:35 AM 68.0 °F 57.2 °F 68% 30.06 in 4.0 mi Variable 6.9 mph 17.3 mph N/A   Haze
1:55 AM 68.0 °F 57.2 °F 68% 30.05 in 4.0 mi Variable 8.1 mph 16.1 mph N/A   Haze
2:15 AM 68.0 °F 57.2 °F 68% 30.04 in 5.0 mi South 8.1 mph 17.3 mph N/A   Haze
2:35 AM 69.8 °F 55.4 °F 60% 30.04 in 5.0 mi Variable 4.6 mph 17.3 mph N/A   Haze
2:55 AM 69.8 °F 57.2 °F 64% 30.03 in 5.0 mi Variable 6.9 mph 17.3 mph N/A   Haze
3:15 AM 69.8 °F 57.2 °F 64% 30.04 in 5.0 mi Variable 4.6 mph 12.7 mph N/A   Haze
3:35 AM 69.8 °F 59.0 °F 68% 30.04 in 5.0 mi Variable 3.5 mph 15.0 mph N/A   Haze
3:55 AM 68.0 °F 59.0 °F 73% 30.04 in 4.0 mi Variable 6.9 mph 16.1 mph N/A   Haze
4:15 AM 68.0 °F 59.0 °F 73% 30.03 in 5.0 mi Variable 4.6 mph 13.8 mph N/A   Haze
4:35 AM 68.0 °F 59.0 °F 73% 30.02 in 5.0 mi South 10.4 mph - N/A   Haze
4:55 AM 68.0 °F 59.0 °F 73% 30.02 in 5.0 mi South 12.7 mph - N/A   Haze
5:15 AM 69.8 °F 59.0 °F 68% 30.02 in 4.0 mi South 13.8 mph - N/A   Haze
5:35 AM 69.8 °F 60.8 °F 73% 30.03 in 4.0 mi Variable 4.6 mph 17.3 mph N/A   Haze
5:55 AM 69.8 °F 60.8 °F 73% 30.03 in 4.0 mi Variable 6.9 mph 15.0 mph N/A   Haze
6:15 AM 69.8 °F 60.8 °F 73% 30.03 in 4.0 mi South 11.5 mph 17.3 mph N/A   Haze
6:35 AM 69.8 °F 60.8 °F 73% 30.04 in 4.0 mi Calm Calm 15.0 mph N/A   Haze
6:55 AM 69.8 °F 60.8 °F 73% 30.05 in 4.0 mi South 8.1 mph 15.0 mph N/A   Haze
7:15 AM 69.8 °F 60.8 °F 73% 30.05 in 4.0 mi Variable 5.8 mph 15.0 mph N/A   Haze
7:35 AM 69.8 °F 62.6 °F 78% 30.06 in 4.0 mi Variable 3.5 mph - N/A   Haze
7:55 AM 69.8 °F 62.6 °F 78% 30.06 in 4.0 mi Variable 4.6 mph - N/A   Haze
8:15 AM 71.6 °F 62.6 °F 73% 30.07 in 4.0 mi Variable 6.9 mph 16.1 mph N/A   Haze
8:35 AM 71.6 °F 62.6 °F 73% 30.07 in 4.0 mi Calm Calm 11.5 mph N/A   Haze
8:55 AM 71.6 °F 62.6 °F 73% 30.09 in 4.0 mi Calm Calm - N/A   Haze
9:15 AM 71.6 °F 64.4 °F 78% 30.09 in 4.0 mi Calm Calm - N/A   Haze
9:35 AM 71.6 °F 64.4 °F 78% 30.09 in 5.0 mi Calm Calm - N/A   Haze
9:55 AM 73.4 °F 64.4 °F 73% 30.08 in 4.0 mi Calm Calm - N/A   Haze
10:15 AM 73.4 °F 64.4 °F 73% 30.08 in 4.0 mi Variable 3.5 mph - N/A   Haze
10:35 AM 73.4 °F 64.4 °F 73% 30.07 in 4.0 mi Variable 4.6 mph 12.7 mph N/A   Haze
10:55 AM 73.4 °F 64.4 °F 73% 30.06 in 5.0 mi Variable 5.8 mph 11.5 mph N/A   Haze
11:15 AM 73.4 °F 64.4 °F 73% 30.06 in 5.0 mi Calm Calm 11.5 mph N/A   Haze
11:35 AM 73.4 °F 64.4 °F 73% 30.05 in 5.0 mi Variable 3.5 mph 11.5 mph N/A   Haze
11:55 AM 73.4 °F 64.4 °F 73% 30.05 in 5.0 mi Variable 3.5 mph 11.5 mph N/A   Haze
12:15 PM 73.4 °F 64.4 °F 73% 30.03 in 5.0 mi Calm Calm - N/A   Haze
12:35 PM 73.4 °F 64.4 °F 73% 30.02 in 4.0 mi Calm Calm - N/A   Haze
12:55 PM 73.4 °F 64.4 °F 73% 30.01 in 5.0 mi Calm Calm - N/A   Haze
1:15 PM 73.4 °F 64.4 °F 73% 30.01 in 5.0 mi Calm Calm - N/A   Haze
1:35 PM 73.4 °F 64.4 °F 73% 30.01 in 4.0 mi Calm Calm - N/A   Haze
1:55 PM 73.4 °F 64.4 °F 73% 30.01 in 5.0 mi Calm Calm - N/A   Haze
2:15 PM 73.4 °F 64.4 °F 73% 30.01 in 4.0 mi Calm Calm - N/A   Haze
2:35 PM 73.4 °F 66.2 °F 78% 30.01 in 5.0 mi Calm Calm - N/A   Haze
2:55 PM 73.4 °F 66.2 °F 78% 30.01 in 5.0 mi Calm Calm - N/A   Haze
3:15 PM 71.6 °F 66.2 °F 83% 30.02 in 4.0 mi Calm Calm - N/A   Haze
3:35 PM 71.6 °F 66.2 °F 83% 30.02 in 4.0 mi Calm Calm - N/A   Haze
3:55 PM 71.6 °F 66.2 °F 83% 30.02 in 4.0 mi Calm Calm - N/A   Haze
4:15 PM 71.6 °F 66.2 °F 83% 30.02 in 4.0 mi Calm Calm - N/A   Haze
4:35 PM 71.6 °F 66.2 °F 83% 30.03 in 4.0 mi Calm Calm - N/A   Haze
4:55 PM 71.6 °F 66.2 °F 83% 30.02 in 4.0 mi Calm Calm - N/A   Haze
5:15 PM 71.6 °F 66.2 °F 83% 30.03 in 4.0 mi Calm Calm - N/A   Haze
5:35 PM 71.6 °F 66.2 °F 83% 30.04 in 4.0 mi Calm Calm - N/A   Haze
5:55 PM 71.6 °F 66.2 °F 83% 30.04 in 4.0 mi Calm Calm - N/A   Haze
6:15 PM 71.6 °F 66.2 °F 83% 30.05 in 4.0 mi Calm Calm - N/A   Haze
6:35 PM 71.6 °F 66.2 °F 83% 30.05 in 4.0 mi Calm Calm - N/A   Haze
6:55 PM 71.6 °F 68.0 °F 88% 30.05 in 4.0 mi Calm Calm - N/A   Haze
7:15 PM 71.6 °F 68.0 °F 88% 30.05 in 4.0 mi Variable 3.5 mph - N/A   Haze
7:35 PM 71.6 °F 68.0 °F 88% 30.06 in 4.0 mi Variable 3.5 mph - N/A   Haze
7:55 PM 71.6 °F 68.0 °F 88% 30.06 in 4.0 mi Calm Calm - N/A   Haze
8:15 PM 71.6 °F 68.0 °F 88% 30.06 in 4.0 mi Calm Calm - N/A   Haze
8:35 PM 71.6 °F 68.0 °F 88% 30.06 in 4.0 mi Calm Calm - N/A   Partly Cloudy
8:55 PM 71.6 °F 68.0 °F 88% 30.06 in 4.0 mi Variable 4.6 mph - N/A   Partly Cloudy
9:15 PM 71.6 °F 68.0 °F 88% 30.06 in 4.0 mi Calm Calm - N/A   Clear
9:35 PM 71.6 °F 68.0 °F 88% 30.06 in 4.0 mi Variable 4.6 mph - N/A   Partly Cloudy
9:55 PM 71.6 °F 68.0 °F 88% 30.08 in 4.0 mi Variable 4.6 mph 15.0 mph N/A   Mostly Cloudy
10:15 PM 66.2 °F 60.8 °F 83% 30.08 in 2.0 mi NW 29.9 mph - N/A   Haze
10:35 PM 66.2 °F 60.8 °F 83% 30.09 in 2.5 mi NW 26.5 mph - N/A   Haze
10:55 PM 64.4 °F 59.0 °F 83% 30.09 in 2.5 mi NW 27.6 mph - N/A   Haze
11:15 PM 64.4 °F 57.2 °F 77% 30.09 in 3.0 mi NW 27.6 mph - N/A   Haze
11:35 PM 62.6 °F 55.4 °F 77% 30.10 in 3.0 mi NW 28.8 mph - N/A   Haze
11:55 PM 64.4 °F 57.2 °F 77% 30.10 in 3.0 mi NW 27.6 mph - N/A   Haze